Monte Real current weather conditions

sailwx.info

Wind from 140 at 11 knots

Air temperature 25.0° C
Dewpoint 13.0° C

Last reported at 2014-Oct-30 12:00 UTC.
Time now 2014-Oct-30 13:48 UTC

Location: N 39°50' W 008°53'.
View on Google Maps.

See reports from other nearby stations

  
Tides and Currents Weather Stations Pressure Air Temp Water Temp Dewpoint Dewpoint Depression Visibility Wind Speed Wind Dir Waves Ship Positions
date/time (UTC)wind fromknots sea level pressurealtimeterstation pressurevisibilityair tempwater tempwave heightnotes
2014-Oct-30 12:00 140 11 25.0
2014-Oct-30 11:00 150 11 24.0
2014-Oct-30 10:00 130 12 22.0
2014-Oct-30 09:00 140 9 19.0
2014-Oct-30 08:00 160 5 18.0
2014-Oct-30 07:00 130 3 18.0
2014-Oct-30 06:00 160 6 18.0
2014-Oct-30 05:00 160 4 18.0
2014-Oct-30 04:00 170 4 18.0
2014-Oct-30 03:00 140 6 19.0
2014-Oct-30 02:00 150 5 19.0
2014-Oct-30 01:00 150 5 19.0
2014-Oct-30 00:00 140 7 20.0
2014-Oct-29 23:00 140 6 20.0
2014-Oct-29 22:00 160 6 20.0
2014-Oct-29 21:00 140 6 21.0
2014-Oct-29 20:00 140 5 21.0
2014-Oct-29 19:00 150 5 22.0
2014-Oct-29 18:00 140 5 24.0
2014-Oct-29 17:00 140 7 25.0
2014-Oct-29 16:00 140 8 25.0
2014-Oct-29 15:00 130 8 25.0
2014-Oct-29 14:00 130 9 25.0
2014-Oct-29 13:00 120 11 24.0
2014-Oct-29 12:00 160 10 24.0
2014-Oct-29 11:00 140 8 23.0
2014-Oct-29 10:00 130 11 21.0
2014-Oct-29 09:00 140 7 19.0
2014-Oct-29 08:00 130 3 17.0
2014-Oct-29 07:00 150 5 16.0
2014-Oct-29 06:00 140 9 16.0
2014-Oct-29 05:00 130 6 17.0
2014-Oct-29 04:00 160 6 17.0
2014-Oct-29 03:00 130 7 16.0
2014-Oct-29 02:00 16.0
2014-Oct-29 01:00 100 5 16.0
2014-Oct-29 00:00 170 6 18.0
2014-Oct-28 23:00 170 3 19.0
2014-Oct-28 22:00 130 7 19.0
2014-Oct-28 21:00 140 4 19.0
2014-Oct-28 20:00 140 4 19.0
2014-Oct-28 19:00 20.0
2014-Oct-28 18:00 160 4 22.0
2014-Oct-28 17:00 140 3 5.422.0
2014-Oct-28 16:00 180 5 5.423.0
2014-Oct-28 15:00 140 10 5.423.0
2014-Oct-28 14:00 140 11 5.423.0
2014-Oct-28 13:00 140 10 5.422.0